AMX120 MGGT-MMMX

Flight info

Callsign AMX120
Flight time 1h 27m
Altitude 38000
Route OMISO UA552 MTT UT112 LARLO LARLO4A
Aircraft B38M/M-SDE1FGHILORVWXY/HB1

Departure

Time 2026-05-08 01:17
Airport La Aurora International Airport (MGGT)

Arrival

Time 2026-05-08 02:44
Airport Mexico City Benito Juárez International Airport (MMMX)
Time Latitude Longitude Altitude Speed Heading
2026-05-08 01:10 14.58919 -90.52787 4962 ft 0 kts 337°
2026-05-08 01:12 14.58920 -90.52788 4962 ft 1 kts 337°
2026-05-08 01:12 14.58923 -90.52789 4962 ft 0 kts 337°
2026-05-08 01:12 14.58924 -90.52789 4962 ft 0 kts 337°
2026-05-08 01:13 14.58933 -90.52796 4961 ft 3 kts 315°
2026-05-08 01:13 14.58936 -90.52817 4962 ft 3 kts 237°
2026-05-08 01:13 14.58918 -90.52817 4962 ft 3 kts 143°
2026-05-08 01:13 14.58896 -90.52788 4960 ft 7 kts 153°
2026-05-08 01:14 14.58839 -90.52767 4962 ft 12 kts 156°
2026-05-08 01:14 14.58797 -90.52684 4961 ft 13 kts 61°
2026-05-08 01:14 14.58867 -90.52645 4964 ft 11 kts 18°
2026-05-08 01:14 14.58934 -90.52623 4966 ft 9 kts 18°
2026-05-08 01:15 14.58996 -90.52602 4970 ft 10 kts 18°
2026-05-08 01:15 14.59077 -90.52577 4973 ft 15 kts 17°
2026-05-08 01:15 14.59199 -90.52538 4976 ft 22 kts 17°
2026-05-08 01:15 14.59371 -90.52484 4985 ft 28 kts 14°
2026-05-08 01:16 14.59497 -90.52442 4984 ft 10 kts 18°
2026-05-08 01:16 14.59576 -90.52405 4991 ft 15 kts 59°
2026-05-08 01:16 14.59516 -90.52365 4987 ft 14 kts 194°
2026-05-08 01:16 14.59290 -90.52439 4983 ft 70 kts 198°
2026-05-08 01:17 14.58584 -90.52666 4952 ft 140 kts 197°
2026-05-08 01:17 14.57487 -90.53017 5142 ft 179 kts 197°
2026-05-08 01:17 14.56229 -90.53431 5798 ft 198 kts 198°
2026-05-08 01:17 14.54922 -90.53851 6658 ft 203 kts 197°
2026-05-08 01:18 14.53510 -90.54326 7130 ft 224 kts 201°
2026-05-08 01:18 14.52262 -90.55387 7484 ft 250 kts 238°
2026-05-08 01:18 14.51817 -90.57210 7860 ft 275 kts 277°
2026-05-08 01:18 14.52497 -90.59044 8703 ft 282 kts 309°
2026-05-08 01:19 14.53986 -90.60416 9384 ft 294 kts 324°
2026-05-08 01:19 14.55550 -90.61822 10285 ft 300 kts 320°
2026-05-08 01:19 14.57079 -90.63330 10879 ft 317 kts 317°
2026-05-08 01:19 14.58675 -90.65009 11288 ft 338 kts 315°
2026-05-08 01:20 14.60336 -90.66823 11731 ft 355 kts 315°
2026-05-08 01:20 14.62046 -90.68721 12291 ft 366 kts 314°
2026-05-08 01:20 14.63793 -90.70649 13095 ft 368 kts 314°
2026-05-08 01:20 14.65562 -90.72589 13769 ft 374 kts 314°
2026-05-08 01:21 14.67356 -90.74562 14415 ft 377 kts 314°
2026-05-08 01:21 14.69159 -90.76540 15054 ft 381 kts 314°
2026-05-08 01:21 14.70990 -90.78552 15609 ft 386 kts 314°
2026-05-08 01:21 14.72834 -90.80579 16234 ft 389 kts 315°
2026-05-08 01:22 14.74702 -90.82630 16782 ft 394 kts 314°
2026-05-08 01:22 14.76580 -90.84698 17424 ft 395 kts 314°
2026-05-08 01:22 14.78473 -90.86777 17998 ft 400 kts 314°
2026-05-08 01:22 14.80381 -90.88877 18582 ft 402 kts 314°
2026-05-08 01:23 14.82283 -90.90969 19017 ft 406 kts 314°
2026-05-08 01:23 14.84226 -90.93103 19461 ft 409 kts 314°
2026-05-08 01:23 14.86189 -90.95258 19902 ft 412 kts 314°
2026-05-08 01:23 14.88158 -90.97431 20327 ft 416 kts 314°
2026-05-08 01:24 14.90144 -90.99615 20840 ft 418 kts 314°
2026-05-08 01:24 14.92146 -91.01820 21278 ft 421 kts 314°
2026-05-08 01:24 14.94154 -91.04029 21717 ft 423 kts 314°
2026-05-08 01:24 14.96181 -91.06262 22137 ft 427 kts 314°
2026-05-08 01:25 14.98222 -91.08510 22531 ft 431 kts 314°
2026-05-08 01:25 15.00280 -91.10778 22923 ft 434 kts 314°
2026-05-08 01:25 15.02352 -91.13062 23341 ft 437 kts 314°
2026-05-08 01:25 15.04439 -91.15362 23721 ft 440 kts 314°
2026-05-08 01:26 15.06544 -91.17683 24036 ft 444 kts 314°
2026-05-08 01:26 15.08663 -91.20018 24374 ft 446 kts 314°
2026-05-08 01:26 15.10762 -91.22333 24719 ft 448 kts 314°
2026-05-08 01:26 15.12896 -91.24688 25069 ft 450 kts 314°
2026-05-08 01:27 15.15043 -91.27057 25428 ft 452 kts 314°
2026-05-08 01:27 15.17202 -91.29442 25770 ft 455 kts 314°
2026-05-08 01:27 15.19371 -91.31837 26106 ft 457 kts 314°
2026-05-08 01:27 15.21547 -91.34241 26426 ft 459 kts 313°
2026-05-08 01:28 15.23740 -91.36664 26752 ft 462 kts 313°
2026-05-08 01:28 15.25938 -91.39093 27092 ft 464 kts 313°
2026-05-08 01:28 15.28153 -91.41540 27408 ft 467 kts 313°
2026-05-08 01:28 15.30378 -91.44001 27770 ft 468 kts 313°
2026-05-08 01:29 15.32542 -91.46530 28092 ft 470 kts 309°
2026-05-08 01:29 15.34598 -91.49127 28405 ft 472 kts 309°
2026-05-08 01:29 15.36701 -91.51755 28715 ft 475 kts 309°
2026-05-08 01:29 15.38820 -91.54391 29019 ft 477 kts 309°
2026-05-08 01:30 15.40954 -91.57043 29353 ft 479 kts 309°
2026-05-08 01:30 15.43092 -91.59699 29649 ft 481 kts 309°
2026-05-08 01:30 15.45244 -91.62374 29946 ft 483 kts 309°
2026-05-08 01:30 15.47403 -91.65059 30220 ft 485 kts 309°
2026-05-08 01:31 15.49570 -91.67754 30452 ft 487 kts 309°
2026-05-08 01:31 15.51710 -91.70415 30703 ft 487 kts 309°
2026-05-08 01:31 15.53884 -91.73120 30965 ft 489 kts 309°
2026-05-08 01:31 15.56061 -91.75830 31231 ft 490 kts 309°
2026-05-08 01:32 15.58245 -91.78552 31484 ft 491 kts 309°
2026-05-08 01:32 15.60429 -91.81271 31805 ft 491 kts 309°
2026-05-08 01:32 15.62609 -91.83989 32139 ft 489 kts 309°
2026-05-08 01:32 15.64783 -91.86699 32485 ft 487 kts 309°
2026-05-08 01:33 15.66942 -91.89394 32940 ft 483 kts 309°
2026-05-08 01:33 15.69082 -91.92064 33379 ft 480 kts 309°
2026-05-08 01:33 15.71210 -91.94725 33802 ft 477 kts 309°
2026-05-08 01:33 15.73324 -91.97371 34203 ft 474 kts 309°
2026-05-08 01:34 15.75427 -92.00005 34523 ft 473 kts 309°
2026-05-08 01:34 15.77522 -92.02632 34802 ft 472 kts 309°
2026-05-08 01:34 15.79614 -92.05256 35096 ft 471 kts 309°
2026-05-08 01:34 15.81701 -92.07872 35379 ft 470 kts 309°
2026-05-08 01:35 15.83790 -92.10492 35671 ft 469 kts 309°
2026-05-08 01:35 15.85867 -92.13098 35959 ft 468 kts 309°
2026-05-08 01:35 15.87945 -92.15706 36244 ft 468 kts 309°
2026-05-08 01:35 15.90011 -92.18304 36542 ft 467 kts 309°
2026-05-08 01:36 15.92087 -92.20910 36810 ft 466 kts 309°
2026-05-08 01:36 15.94152 -92.23504 37076 ft 465 kts 309°
2026-05-08 01:36 15.96185 -92.26061 37349 ft 464 kts 309°
2026-05-08 01:36 15.98241 -92.28649 37599 ft 464 kts 309°
2026-05-08 01:37 16.00294 -92.31229 37841 ft 463 kts 310°
2026-05-08 01:37 16.04393 -92.36387 37888 ft 461 kts 310°
2026-05-08 01:38 16.08469 -92.41523 37906 ft 460 kts 310°
2026-05-08 01:38 16.12547 -92.46661 37881 ft 460 kts 310°
2026-05-08 01:39 16.16619 -92.51798 37880 ft 460 kts 310°
2026-05-08 01:39 16.20692 -92.56941 37888 ft 460 kts 310°
2026-05-08 01:40 16.24758 -92.62078 37861 ft 460 kts 310°
2026-05-08 01:40 16.28806 -92.67195 37861 ft 461 kts 309°
2026-05-08 01:41 16.32882 -92.72350 37859 ft 461 kts 309°
2026-05-08 01:41 16.36957 -92.77509 37839 ft 462 kts 309°
2026-05-08 01:42 16.41040 -92.82683 37876 ft 462 kts 309°
2026-05-08 01:42 16.45123 -92.87856 37902 ft 462 kts 309°
2026-05-08 01:43 16.49202 -92.93032 37926 ft 462 kts 309°
2026-05-08 01:43 16.53281 -92.98212 37934 ft 462 kts 309°
2026-05-08 01:44 16.57432 -93.03327 37922 ft 462 kts 316°
2026-05-08 01:44 16.62026 -93.07962 37928 ft 462 kts 315°
2026-05-08 01:45 16.66649 -93.12609 37913 ft 462 kts 316°
2026-05-08 01:45 16.71274 -93.17245 37885 ft 461 kts 316°
2026-05-08 01:46 16.75892 -93.21875 37859 ft 460 kts 316°
2026-05-08 01:46 16.80505 -93.26505 37831 ft 460 kts 316°
2026-05-08 01:47 16.85123 -93.31142 37819 ft 460 kts 316°
2026-05-08 01:47 16.89729 -93.35774 37805 ft 460 kts 316°
2026-05-08 01:48 16.96622 -93.42712 37807 ft 460 kts 316°
2026-05-08 01:48 17.00480 -93.46599 37806 ft 460 kts 316°
2026-05-08 01:49 17.05837 -93.51996 37794 ft 461 kts 316°
2026-05-08 01:49 17.10443 -93.56646 37794 ft 460 kts 316°
2026-05-08 01:50 17.14301 -93.60540 37792 ft 460 kts 316°
2026-05-08 01:50 17.18881 -93.65167 37775 ft 460 kts 316°
2026-05-08 01:51 17.23483 -93.69818 37771 ft 460 kts 316°
2026-05-08 01:51 17.28086 -93.74474 37771 ft 461 kts 316°
2026-05-08 01:52 17.32687 -93.79135 37765 ft 460 kts 316°
2026-05-08 01:52 17.37298 -93.83804 37763 ft 461 kts 315°
2026-05-08 01:53 17.41914 -93.88487 37768 ft 462 kts 315°
2026-05-08 01:53 17.46531 -93.93170 37768 ft 462 kts 315°
2026-05-08 01:54 17.51110 -93.97820 37773 ft 462 kts 315°
2026-05-08 01:54 17.55727 -94.02514 37773 ft 462 kts 315°
2026-05-08 01:55 17.60332 -94.07198 37780 ft 462 kts 315°
2026-05-08 01:55 17.64943 -94.11890 37785 ft 462 kts 315°
2026-05-08 01:56 17.69550 -94.16583 37782 ft 462 kts 315°
2026-05-08 01:56 17.74149 -94.21270 37791 ft 460 kts 315°
2026-05-08 01:57 17.78752 -94.25962 37802 ft 462 kts 315°
2026-05-08 01:57 17.83327 -94.30635 37804 ft 462 kts 315°
2026-05-08 01:58 17.87934 -94.35343 37820 ft 462 kts 315°
2026-05-08 01:58 17.92539 -94.40048 37826 ft 462 kts 315°
2026-05-08 01:59 17.97143 -94.44757 37840 ft 462 kts 315°
2026-05-08 01:59 18.01721 -94.49444 37841 ft 462 kts 315°
2026-05-08 02:00 18.06320 -94.54159 37841 ft 462 kts 315°
2026-05-08 02:00 18.10075 -94.59541 37841 ft 458 kts 289°
2026-05-08 02:01 18.11521 -94.66087 37836 ft 462 kts 281°
2026-05-08 02:01 18.12731 -94.72721 37858 ft 462 kts 280°
2026-05-08 02:02 18.13865 -94.79363 37859 ft 462 kts 279°
2026-05-08 02:02 18.14987 -94.86013 37858 ft 462 kts 279°
2026-05-08 02:03 18.16099 -94.92620 37864 ft 462 kts 279°
2026-05-08 02:03 18.17215 -94.99272 37868 ft 460 kts 279°
2026-05-08 02:04 18.18320 -95.05883 37864 ft 458 kts 279°
2026-05-08 02:04 18.19424 -95.12482 37864 ft 459 kts 279°
2026-05-08 02:05 18.20528 -95.19097 37858 ft 460 kts 279°
2026-05-08 02:05 18.21629 -95.25713 37857 ft 459 kts 278°
2026-05-08 02:06 18.22726 -95.32323 37856 ft 459 kts 279°
2026-05-08 02:06 18.23820 -95.38925 37850 ft 456 kts 278°
2026-05-08 02:07 18.24904 -95.45482 37849 ft 455 kts 278°
2026-05-08 02:07 18.25981 -95.52009 37848 ft 455 kts 278°
2026-05-08 02:08 18.27062 -95.58574 37850 ft 455 kts 278°
2026-05-08 02:08 18.28144 -95.65141 37857 ft 455 kts 278°
2026-05-08 02:09 18.29219 -95.71708 37856 ft 455 kts 278°
2026-05-08 02:09 18.30302 -95.78329 37861 ft 462 kts 278°
2026-05-08 02:10 18.31395 -95.85009 37861 ft 462 kts 278°
2026-05-08 02:10 18.32475 -95.91643 37862 ft 462 kts 278°
2026-05-08 02:11 18.33558 -95.98309 37878 ft 462 kts 278°
2026-05-08 02:11 18.34635 -96.04951 37864 ft 458 kts 278°
2026-05-08 02:12 18.35702 -96.11559 37877 ft 457 kts 278°
2026-05-08 02:12 18.36767 -96.18158 37868 ft 456 kts 278°
2026-05-08 02:13 18.37830 -96.24748 37882 ft 456 kts 278°
2026-05-08 02:13 18.38881 -96.31302 37880 ft 456 kts 278°
2026-05-08 02:14 18.39941 -96.37900 37881 ft 457 kts 278°
2026-05-08 02:14 18.40996 -96.44492 37890 ft 456 kts 278°
2026-05-08 02:15 18.42047 -96.51084 37890 ft 456 kts 277°
2026-05-08 02:15 18.43097 -96.57675 37895 ft 456 kts 277°
2026-05-08 02:16 18.44143 -96.64264 37889 ft 456 kts 277°
2026-05-08 02:16 18.45186 -96.70854 37928 ft 456 kts 277°
2026-05-08 02:17 18.46229 -96.77437 37912 ft 456 kts 277°
2026-05-08 02:17 18.47268 -96.84032 37914 ft 456 kts 277°
2026-05-08 02:18 18.48306 -96.90620 37953 ft 456 kts 277°
2026-05-08 02:18 18.49339 -96.97210 37950 ft 456 kts 277°
2026-05-08 02:19 18.50374 -97.03809 37970 ft 456 kts 277°
2026-05-08 02:19 18.51398 -97.10355 37975 ft 456 kts 277°
2026-05-08 02:20 18.52426 -97.16949 37990 ft 456 kts 277°
2026-05-08 02:20 18.53451 -97.23539 37991 ft 456 kts 277°
2026-05-08 02:21 18.54473 -97.30137 37984 ft 456 kts 277°
2026-05-08 02:21 18.55497 -97.36738 37972 ft 456 kts 277°
2026-05-08 02:22 18.56516 -97.43338 38004 ft 456 kts 277°
2026-05-08 02:22 18.57531 -97.49933 38001 ft 456 kts 277°
2026-05-08 02:23 18.58546 -97.56529 37955 ft 456 kts 277°
2026-05-08 02:23 18.59055 -97.59833 37708 ft 455 kts 277°
2026-05-08 02:23 18.59559 -97.63121 37460 ft 453 kts 277°
2026-05-08 02:24 18.60062 -97.66395 37224 ft 453 kts 278°
2026-05-08 02:24 18.60632 -97.69666 36978 ft 454 kts 279°
2026-05-08 02:24 18.61211 -97.72940 36737 ft 454 kts 278°
2026-05-08 02:24 18.61783 -97.76209 36478 ft 455 kts 278°
2026-05-08 02:25 18.62356 -97.79494 36251 ft 455 kts 278°
2026-05-08 02:25 18.62929 -97.82775 36021 ft 455 kts 278°
2026-05-08 02:25 18.63491 -97.86012 35792 ft 455 kts 279°
2026-05-08 02:25 18.64062 -97.89295 35556 ft 456 kts 279°
2026-05-08 02:26 18.64635 -97.92582 35289 ft 456 kts 278°
2026-05-08 02:26 18.65207 -97.95870 34733 ft 455 kts 278°
2026-05-08 02:26 18.65777 -97.99144 33976 ft 453 kts 278°
2026-05-08 02:26 18.66347 -98.02420 33153 ft 455 kts 278°
2026-05-08 02:27 18.66923 -98.05713 32387 ft 456 kts 278°
2026-05-08 02:27 18.67493 -98.08986 31877 ft 452 kts 278°
2026-05-08 02:27 18.68057 -98.12234 31239 ft 451 kts 278°
2026-05-08 02:27 18.68629 -98.15537 30353 ft 461 kts 278°
2026-05-08 02:28 18.69212 -98.18887 29274 ft 467 kts 278°
2026-05-08 02:28 18.69801 -98.22274 28248 ft 472 kts 278°
2026-05-08 02:28 18.70396 -98.25700 27401 ft 477 kts 278°
2026-05-08 02:28 18.70994 -98.29165 26699 ft 481 kts 278°
2026-05-08 02:29 18.71593 -98.32598 26080 ft 482 kts 278°
2026-05-08 02:29 18.72233 -98.36076 25919 ft 485 kts 278°
2026-05-08 02:29 18.72876 -98.39582 25905 ft 485 kts 278°
2026-05-08 02:29 18.73508 -98.43027 25427 ft 475 kts 278°
2026-05-08 02:30 18.74131 -98.46451 24647 ft 475 kts 278°
2026-05-08 02:30 18.74754 -98.49863 24024 ft 469 kts 278°
2026-05-08 02:30 18.75368 -98.53229 23156 ft 467 kts 278°
2026-05-08 02:30 18.75977 -98.56575 22311 ft 461 kts 278°
2026-05-08 02:31 18.76575 -98.59875 21439 ft 455 kts 278°
2026-05-08 02:31 18.77169 -98.63142 20625 ft 450 kts 278°
2026-05-08 02:31 18.77753 -98.66359 19827 ft 444 kts 279°
2026-05-08 02:31 18.78329 -98.69536 19138 ft 438 kts 279°
2026-05-08 02:32 18.78897 -98.72676 18425 ft 433 kts 278°
2026-05-08 02:32 18.79458 -98.75781 17628 ft 428 kts 279°
2026-05-08 02:32 18.80028 -98.78841 16986 ft 420 kts 282°
2026-05-08 02:32 18.81150 -98.81660 16937 ft 422 kts 299°
2026-05-08 02:33 18.82966 -98.84011 16715 ft 407 kts 315°
2026-05-08 02:33 18.85261 -98.85718 16163 ft 402 kts 332°
2026-05-08 02:33 18.87764 -98.86881 15657 ft 393 kts 335°
2026-05-08 02:33 18.90244 -98.88024 15042 ft 386 kts 335°
2026-05-08 02:34 18.92685 -98.89166 14766 ft 381 kts 334°
2026-05-08 02:34 18.95077 -98.90294 14568 ft 372 kts 334°
2026-05-08 02:34 18.97411 -98.91400 14394 ft 362 kts 334°
2026-05-08 02:34 18.99677 -98.92479 14249 ft 353 kts 334°
2026-05-08 02:35 19.01887 -98.93534 14088 ft 344 kts 333°
2026-05-08 02:35 19.04053 -98.94572 13943 ft 337 kts 333°
2026-05-08 02:35 19.06168 -98.95587 13764 ft 330 kts 333°
2026-05-08 02:35 19.08234 -98.96581 13572 ft 323 kts 333°
2026-05-08 02:36 19.10259 -98.97555 13451 ft 314 kts 333°
2026-05-08 02:36 19.11562 -98.98182 13381 ft 307 kts 333°
2026-05-08 02:36 19.13478 -98.99105 13262 ft 298 kts 333°
2026-05-08 02:36 19.15338 -99.00002 13110 ft 289 kts 332°
2026-05-08 02:37 19.17137 -99.00879 12966 ft 279 kts 331°
2026-05-08 02:37 19.18645 -99.02033 12659 ft 258 kts 313°
2026-05-08 02:37 19.19895 -99.03281 12510 ft 237 kts 314°
2026-05-08 02:37 19.21080 -99.04458 12435 ft 232 kts 314°
2026-05-08 02:38 19.22254 -99.05626 12394 ft 232 kts 313°
2026-05-08 02:38 19.23437 -99.06806 12391 ft 234 kts 313°
2026-05-08 02:38 19.24564 -99.08029 12424 ft 230 kts 304°
2026-05-08 02:38 19.25514 -99.09378 12449 ft 228 kts 303°
2026-05-08 02:39 19.26463 -99.10726 12461 ft 228 kts 305°
2026-05-08 02:39 19.27423 -99.12064 12454 ft 228 kts 305°
2026-05-08 02:39 19.28387 -99.13399 12459 ft 228 kts 305°
2026-05-08 02:39 19.29356 -99.14730 12424 ft 224 kts 306°
2026-05-08 02:40 19.30304 -99.16028 11899 ft 225 kts 306°
2026-05-08 02:40 19.31263 -99.17340 11386 ft 224 kts 307°
2026-05-08 02:40 19.32291 -99.18534 10815 ft 216 kts 320°
2026-05-08 02:40 19.33586 -99.19308 10105 ft 211 kts 346°
2026-05-08 02:41 19.35006 -99.19396 9768 ft 205 kts 12°
2026-05-08 02:41 19.36260 -99.18735 9537 ft 202 kts 43°
2026-05-08 02:41 19.37135 -99.17629 9377 ft 192 kts 53°
2026-05-08 02:41 19.37890 -99.16520 9223 ft 178 kts 54°
2026-05-08 02:42 19.38578 -99.15466 9118 ft 171 kts 55°
2026-05-08 02:42 19.39230 -99.14437 8920 ft 166 kts 56°
2026-05-08 02:42 19.39862 -99.13413 8678 ft 166 kts 56°
2026-05-08 02:42 19.40480 -99.12393 8462 ft 166 kts 57°
2026-05-08 02:43 19.41087 -99.11365 8093 ft 163 kts 55°
2026-05-08 02:43 19.41686 -99.10344 7791 ft 163 kts 57°
2026-05-08 02:43 19.42281 -99.09313 7540 ft 164 kts 58°
2026-05-08 02:43 19.42866 -99.08275 7364 ft 164 kts 57°
2026-05-08 02:44 19.43417 -99.07271 7316 ft 146 kts 54°
2026-05-08 02:44 19.43859 -99.06514 7305 ft 67 kts 59°
2026-05-08 02:44 19.43964 -99.06204 7305 ft 25 kts 85°
2026-05-08 02:44 19.43965 -99.06106 7305 ft 0 kts 103°
2026-05-08 02:45 19.43964 -99.06101 7305 ft 1 kts 105°
2026-05-08 02:45 19.43961 -99.06092 7305 ft 0 kts 108°
2026-05-08 02:45 19.43959 -99.06086 7305 ft 4 kts 109°
2026-05-08 02:45 19.43943 -99.06073 7305 ft 5 kts 176°
2026-05-08 02:46 19.43939 -99.06074 7305 ft 0 kts 192°
2026-05-08 02:46 19.43935 -99.06076 7305 ft 3 kts 196°
2026-05-08 02:46 19.43920 -99.06084 7305 ft 3 kts 217°
2026-05-08 02:46 19.43907 -99.06099 7305 ft 6 kts 232°
2026-05-08 02:47 19.43889 -99.06127 7305 ft 0 kts 239°
2026-05-08 02:47 19.43886 -99.06131 7305 ft 1 kts 239°
2026-05-08 02:47 19.43882 -99.06139 7305 ft 0 kts 240°
2026-05-08 02:47 19.43880 -99.06143 7305 ft 1 kts 239°
2026-05-08 02:48 19.43874 -99.06154 7305 ft 2 kts 240°
2026-05-08 02:48 19.43865 -99.06171 7305 ft 3 kts 240°
2026-05-08 02:48 19.43852 -99.06194 7305 ft 4 kts 239°
2026-05-08 02:48 19.43834 -99.06225 7305 ft 6 kts 239°
2026-05-08 02:49 19.43810 -99.06267 7305 ft 8 kts 239°
2026-05-08 02:49 19.43780 -99.06321 7305 ft 10 kts 239°
2026-05-08 02:49 19.43742 -99.06388 7305 ft 12 kts 239°
2026-05-08 02:49 19.43697 -99.06467 7305 ft 13 kts 238°
2026-05-08 02:50 19.43649 -99.06555 7305 ft 14 kts 239°
2026-05-08 02:50 19.43597 -99.06646 7305 ft 15 kts 235°
2026-05-08 02:50 19.43519 -99.06720 7305 ft 15 kts 209°
2026-05-08 02:50 19.43433 -99.06787 7305 ft 16 kts 238°
2026-05-08 02:51 19.43385 -99.06895 7305 ft 16 kts 242°
2026-05-08 02:51 19.43325 -99.07000 7305 ft 17 kts 237°
2026-05-08 02:51 19.43270 -99.07108 7305 ft 16 kts 254°
2026-05-08 02:51 19.43253 -99.07225 7305 ft 16 kts 260°
2026-05-08 02:52 19.43206 -99.07336 7305 ft 17 kts 241°
2026-05-08 02:52 19.43144 -99.07444 7305 ft 17 kts 238°
2026-05-08 02:52 19.43081 -99.07556 7305 ft 18 kts 239°
2026-05-08 02:52 19.43014 -99.07671 7305 ft 19 kts 237°
2026-05-08 02:53 19.42939 -99.07784 7305 ft 19 kts 223°
2026-05-08 02:53 19.42825 -99.07859 7305 ft 19 kts 208°
2026-05-08 02:53 19.42700 -99.07848 7305 ft 19 kts 149°
2026-05-08 02:53 19.42599 -99.07795 7305 ft 16 kts 178°
2026-05-08 02:54 19.42537 -99.07821 7305 ft 7 kts 207°
2026-05-08 02:54 19.42509 -99.07836 7305 ft 3 kts 207°
2026-05-08 02:54 19.42497 -99.07842 7305 ft 1 kts 207°
2026-05-08 02:54 19.42493 -99.07844 7305 ft 0 kts 207°